Location: The Saddle
(36.8333°N, 80.3417°W)
Time: 19:25:15
(UTC-04:00)

A-11 Canister half - Pass Details

Date: 16 December 2023
Orbit: 1524 x 1684 km, 47.3° (Epoch: 12 July)

Event Time Altitude Azimuth Distance (km) Brightness Sun altitude
Rises 21:13:17 0° 299° (WNW) 4,941 12.3 -48.4°
Reaches altitude 10° 21:16:32 10° 303° (WNW) 3,950 11.6 -49.1°
Enters shadow 21:21:40 34° 314° (NW) 2,506 10.2 -50.1°
Maximum altitude 21:26:39 66° 25° (NNE) 1,786 - -51.1°
Drops below altitude 10° 21:36:32 10° 107° (ESE) 3,860 - -53.0°
Sets 21:39:39 0° 110° (ESE) 4,824 - -53.7°
